Lewistown, MT

2:40 PM MST on November 17, 2017 (GMT -0700)
Lewistown Municipal

Weather History for KLWT - June, 2013

Change the Weather History Date:

Sunday, June 23, 2013

  Actual Average Record
Temperature  
Mean Temperature 55 °F 60 °F  
Max Temperature 72 °F 73 °F 97 °F (1941)
Min Temperature 38 °F 47 °F 32 °F (1905)
Degree Days  
Heating Degree Days 10 6  
Month to date heating degree days 217 191  
Since 1 June heating degree days 217 191  
Since 1 July heating degree days 8066 8165  
Cooling Degree Days 0 1  
Month to date cooling degree days 4 9  
Year to date cooling degree days 7 11  
Since 1 June cooling degree days 4 9  
Growing Degree Days 6 (Base 50)    
Moisture  
Dew Point 42 °F    
Average Humidity 63    
Maximum Humidity 92    
Minimum Humidity 33    
Precipitation  
Precipitation 0.00 in 0.09 in 1.60 in (1907)
Month to date precipitation 4.53 2.49  
Year to date precipitation 14.16 8.75  
Snow  
Snow 0.00 in - - ()
Snow Depth 0.00 in    
Sea Level Pressure  
Sea Level Pressure 29.82 in    
Wind  
Wind Speed 6 mph (East)    
Max Wind Speed 14 mph    
Max Gust Speed 21 mph    
Visibility 10 miles    
Events      
T = Trace of Precipitation, MM = Missing Value Source: NWS Daily Summary

Daily Weather History Graph

Daily Weather History Graph

Search for Another Location

Airport or City:

Trip Planner

Search our weather history database for the weather conditions in past years. The results will help you decide how hot, cold, wet, or windy it might be!

Date:

Astronomy

Jun. 23, 2013 Rise Set
Actual Time 5:23 AM MDT 9:17 PM MDT
Civil Twilight 4:43 AM MDT 9:57 PM MDT
Nautical Twilight 3:48 AM MDT 10:51 PM MDT
Astronomical Twilight 2:25 AM MDT 12:14 AM MDT
Moon 9:25 PM MDT (6/23) 5:49 AM MDT (6/23)
Length of Visible Light 17h 13m
Length of Day
15h 54m
Full, 100% of the Moon is Illuminated
Jun 23
Full
Jun 29
Last Quarter
Jul 8
New
Jul 15
First Quarter
Jul 22
Full

Hourly Weather History & Observations

Time (MDT) Temp. Windchill Dew Point Humidity Pressure Visibility Wind Dir Wind Speed Gust Speed Precip Events Conditions
12:54 AM 44.1 °F - 42.1 °F 93% 29.94 in 10.0 mi Calm Calm - N/A   Clear
1:54 AM 44.1 °F 42.5 °F 39.9 °F 85% 29.93 in 10.0 mi SSE 3.5 mph - N/A   Clear
2:54 AM 39.9 °F 35.1 °F 37.9 °F 93% 29.93 in 10.0 mi East 6.9 mph - N/A   Clear
3:54 AM 39.9 °F 35.1 °F 37.9 °F 93% 29.92 in 10.0 mi SE 6.9 mph - N/A   Clear
4:54 AM 39.0 °F 34.8 °F 37.0 °F 93% 29.93 in 10.0 mi SE 5.8 mph - N/A   Clear
5:54 AM 39.0 °F 34.8 °F 37.0 °F 93% 29.92 in 10.0 mi ESE 5.8 mph - N/A   Clear
6:54 AM 43.0 °F 41.3 °F 39.9 °F 89% 29.90 in 10.0 mi ESE 3.5 mph - N/A   Clear
7:54 AM 53.1 °F - 46.0 °F 77% 29.88 in 10.0 mi Calm Calm - N/A   Clear
8:54 AM 59.0 °F - 43.0 °F 55% 29.86 in 10.0 mi WSW 9.2 mph - N/A   Clear
9:54 AM 61.0 °F - 42.1 °F 50% 29.85 in 10.0 mi WSW 8.1 mph - N/A   Clear
10:54 AM 63.0 °F - 42.1 °F 46% 29.83 in 10.0 mi West 9.2 mph - N/A   Clear
11:54 AM 64.9 °F - 41.0 °F 42% 29.82 in 10.0 mi WSW 10.4 mph - N/A   Partly Cloudy
12:54 PM 66.9 °F - 37.0 °F 33% 29.80 in 10.0 mi West 11.5 mph - N/A   Clear
1:54 PM 66.9 °F - 39.9 °F 37% 29.78 in 10.0 mi WNW 5.8 mph - N/A   Clear
2:54 PM 70.0 °F - 39.9 °F 33% 29.77 in 10.0 mi Calm Calm - N/A   Clear
3:54 PM 70.0 °F - 43.0 °F 38% 29.76 in 10.0 mi NNW 4.6 mph - N/A   Clear
4:54 PM 71.1 °F - 45.0 °F 39% 29.75 in 10.0 mi NNW 6.9 mph - N/A   Clear
5:54 PM 72.0 °F - 42.1 °F 34% 29.73 in 10.0 mi NNE 3.5 mph - N/A   Clear
6:54 PM 70.0 °F - 43.0 °F 38% 29.73 in 10.0 mi North 3.5 mph - N/A   Clear
7:54 PM 69.1 °F - 46.9 °F 45% 29.72 in 10.0 mi NNE 4.6 mph - N/A   Clear
8:54 PM 64.0 °F - 46.0 °F 52% 29.71 in 10.0 mi NE 3.5 mph - N/A   Clear
9:54 PM 57.9 °F - 46.0 °F 65% 29.73 in 10.0 mi East 5.8 mph - N/A   Clear
10:54 PM 52.0 °F - 46.0 °F 80% 29.73 in 10.0 mi ESE 6.9 mph - N/A   Clear
11:54 PM 54.0 °F - 46.0 °F 75% 29.72 in 10.0 mi ESE 6.9 mph - N/A   Clear